Weather in Xojayli

Uzbekistan     42°24′33″N   59°27′29″E
temp.,
°C
wind,
m/s
gust,
m/s
humid.,
%
clouds,
%
prec.,
mm/h
press.,
hPa
HPBL,
m
12 april, mon
mon1223:00+17e712340 0.0 1024508
02:00+15ene48410 0.0 1023150
05:00+14ene47450 0.0 1023111
08:00+15ne37400 0.0 1024235
11:00+20ene56210 0.0 10241033
14:00+23ene67140 0.0 10221769
17:00+23ene55144 0.0 10211983
20:00+18nne81133100 0.0 1023426
13 april, tue
tue1323:00+16nne6113791 0.0 1023297
02:00+14nne484559 0.0 1022153
05:00+13ne34390 0.0 102249
08:00+15nne35330 0.0 1023160
11:00+20ne45170 0.0 10231134
14:00+23ne45150 0.0 10221727
17:00+24nne87160 0.0 10201877
20:00+19n69260 0.0 1020367
14 april, wed
wed1423:00+16n47450 0.0 1020174
02:00+15n33500 0.0 101942
05:00+14n44450 0.0 101849
08:00+15ne59380 0.0 1018276
11:00+21ne67260 0.0 10181402
14:00+23nne66230 0.0 10162254
17:00+23nne76220 0.0 10142326
20:00+19nne710330 0.0 1014433
15 april, thu
thu1523:00+17nne46400 0.0 1014151
02:00+15nnw22450 0.0 101411
05:00+14nnw33501 0.0 101430
08:00+16nnw22436 0.0 1015107
11:00+21nnw222796 0.0 1014990
14:00+24w342034 0.0 10132002
17:00+25w34170 0.0 10122411
20:00+22wnw33210 0.0 101132
16 april, fri
fri1623:00+19ne453141 0.0 101180
02:00+18se332943 0.0 101035
05:00+15sw454933 0.4 101084
08:00+17sw46442 0.6 1010231
11:00+22wsw67250 0.6 10101240
14:00+24w67200 0.0 10102051
17:00+26wnw67180 0.0 10092822
20:00+22n582657 0.0 1010231